1399017029166,0.000160312
1399017089166,0.000160715
1399017149166,0.000160126
1399017209166,0.000160847
1399017269166,0.000161328
1399017329166,0.000156811
1399017389166,0.000159845
1399017449166,0.000160191
1399017509166,0.000159871
1399017569166,0.000159765
1399017629175,0.000161470
1399017689175,0.000165825
1399017749175,0.000180435
1399017809175,0.000170329
1399017869175,0.000167995
1399017929175,0.000167311
1399017989175,0.000165183
1399018049175,0.000164102
1399018109175,0.000165701
1399018169175,0.000162371
1399018229175,0.000162393
1399018289175,0.000164196
1399018349175,0.000163147
1399018409175,0.000162018
1399018469175,0.000159087
1399018529175,0.000162132
1399018589175,0.000161095
1399018649175,0.000160225
1399018709175,0.000161543
1399018769175,0.000161945
1399018829175,0.000160063
1399018889175,0.000160038
1399018949175,0.000158901
1399019009175,0.000160421
1399019069175,0.000158906
1399019129175,0.000159697
1399019189175,0.000159418
1399019249175,0.000157938
1399019309175,0.000157908
1399019369175,0.000159483
1399019429175,0.000158760
1399019489175,0.000160090
1399019549175,0.000159710
1399019609175,0.000160542
1399019669175,0.000161454
1399019729175,0.000162159
1399019789175,0.000162362
1399019849175,0.000160621
1399019909175,0.000160591
1399019969175,0.000159814
1399020029175,0.000158913
1399020089175,0.000160667
1399020149175,0.000159045
1399020209175,0.000160362
1399020269175,0.000157086
1399020329175,0.000159729
1399020389175,0.000161418
1399020449175,0.000160934
1399020509175,0.000159219
1399020569175,0.000158547
1399020629175,0.000160634
1399020689175,0.000159182
1399020749175,0.000160221
1399020809175,0.000158006
1399020869175,0.000158580
1399020929175,0.000159392
1399020989175,0.000159612
1399021049175,0.000159981
1399021109175,0.000160099
1399021169175,0.000159251
1399021229185,0.000159146
1399021289185,0.000159340
1399021349185,0.000159067
1399021409185,0.000159402
1399021469185,0.000158579
1399021529185,0.000158494
1399021589185,0.000159952
1399021649185,0.000159890
1399021709185,0.000161519
1399021769185,0.000160916
1399021829185,0.000159801
1399021889185,0.000161064
1399021949185,0.000160279
1399022009185,0.000159123
1399022069185,0.000158004
1399022129185,0.000159169
1399022189185,0.000157566
1399022249185,0.000158920
1399022309185,0.000158853
1399022369185,0.000162437
1399022429185,0.000161769
1399022489185,0.000163498
1399022549185,0.000162778
1399022609185,0.000162744
1399022669185,0.000163217
1399022729185,0.000162633
1399022789185,0.000162140
1399022849185,0.000162145
1399022909185,0.000163559
1399022969185,0.000161863
1399023029185,0.000162002
1399023089185,0.000163502
1399023149185,0.000163402
1399023209185,0.000162182
1399023269185,0.000162730
1399023329185,0.000162590
1399023389185,0.000163767
1399023449185,0.000164650
1399023509185,0.000165166
1399023569185,0.000164232
1399023629185,0.000164182
1399023689185,0.000164849
1399023749185,0.000165845
1399023809185,0.000162659
1399023869185,0.000162510
1399023929185,0.000162518
1399023989185,0.000161659
1399024049185,0.000162997
1399024109185,0.000162211
1399024169185,0.000162822
1399024229185,0.000163535
1399024289185,0.000162034
1399024349185,0.000162971
1399024409185,0.000162905
1399024469185,0.000161766
1399024529185,0.000160527
1399024589185,0.000160820
1399024649185,0.000160363
1399024709185,0.000160764
1399024769185,0.000159030
1399024829194,0.000159017
1399024889194,0.000159886
1399024949194,0.000159090
1399025009194,0.000159154
1399025069194,0.000158529
1399025129194,0.000159100
1399025189194,0.000158346
1399025249194,0.000156893
1399025309194,0.000157975
1399025369194,0.000158555
1399025429194,0.000159518
1399025489194,0.000157397
1399025549194,0.000158268
1399025609194,0.000156102
1399025669194,0.000157986
1399025729194,0.000158236
1399025789194,0.000156756
1399025849194,0.000159427
1399025909194,0.000160650
1399025969194,0.000160876
1399026029194,0.000159209
1399026089194,0.000159450
1399026149194,0.000160234
1399026209194,0.000162040
1399026269194,0.000161595
1399026329194,0.000157776
1399026389194,0.000161470
1399026449194,0.000159238
1399026509194,0.000160267
1399026569194,0.000160591
1399026629194,0.000161951
1399026689194,0.000159034
1399026749194,0.000159699
1399026809194,0.000158851
1399026869194,0.000159418
1399026929194,0.000159958
1399026989194,0.000158852
1399027049194,0.000159244
1399027109194,0.000160553
1399027169194,0.000160131
1399027229194,0.000159916
1399027289194,0.000159957
1399027349194,0.000160730
1399027409194,0.000157969
1399027469194,0.000159227
1399027529194,0.000159770
1399027589194,0.000159634
1399027649194,0.000157445
1399027709194,0.000157201
1399027769194,0.000158529
1399027829194,0.000157539
1399027889194,0.000158126
1399027949194,0.000159395
1399028009194,0.000160453
1399028069194,0.000157399
